GW3540 Weather Reports


Display with metric or nautical units.
time (UTC)temp
F
wind
direction
speed
MPH
gust
MPH
rain 1hr
in
rain 24hr
in
rain mn
in
humidity
%
barometer
mb
20260505003504 81 284 1.0 5.0 0.00 0.00 0.00 47 998.2
20260505003005 81 317 2.0 3.0 0.00 0.00 0.00 48 998.3
20260505002504 81 259 2.0 6.0 0.00 0.00 0.00 47 998.3
20260505002004 82 261 2.0 3.0 0.00 0.00 0.00 46 998.3
20260505001504 82 272 2.0 3.0 0.00 0.00 0.00 45 998.3
20260505001005 82 245 2.0 3.0 0.00 0.00 0.00 45 998.4
20260505000504 83 307 1.0 3.0 0.00 0.00 0.00 45 998.4
20260505000004 83 273 2.0 5.0 0.00 0.00 0.00 43 998.4
20260504235504 83 292 1.0 3.0 0.00 0.00 0.00 44 998.4
20260504235004 83 293 1.0 3.0 0.00 0.00 0.00 43 998.4
20260504234504 83 249 1.0 3.0 0.00 0.00 0.00 43 998.5
20260504234004 83 315 1.0 3.0 0.00 0.00 0.00 44 998.5
20260504233504 84 292 2.0 5.0 0.00 0.00 0.00 44 998.5
20260504232004 82 268 2.0 3.0 0.00 0.00 0.00 43 998.5
20260504231504 82 284 2.0 5.0 0.00 0.00 0.00 43 998.5
20260504231004 82 254 1.0 5.0 0.00 0.00 0.00 43 998.5
20260504230504 82 257 2.0 3.0 0.00 0.00 0.00 44 998.6
20260504230004 82 283 1.0 3.0 0.00 0.00 0.00 44 998.6
20260504225504 83 264 3.0 6.0 0.00 0.00 0.00 44 998.6
20260504225004 82 281 2.0 3.0 0.00 0.00 0.00 44 998.6
20260504224004 83 305 2.0 5.0 0.00 0.00 0.00 44 998.8
20260504223504 83 343 1.0 3.0 0.00 0.00 0.00 44 998.8
20260504223004 82 279 1.0 7.0 0.00 0.00 0.00 44 998.8
20260504222504 81 101 1.0 2.0 0.00 0.00 0.00 45 998.8
20260504222004 80 353 3.0 7.0 0.00 0.00 0.00 45 998.8
20260504221004 80 15 1.0 3.0 0.00 0.00 0.00 45 998.9
20260504220503 81 239 2.0 6.0 0.00 0.00 0.00 45 998.9
20260504220004 81 279 2.0 5.0 0.00 0.00 0.00 44 999.0
20260504215504 81 271 1.0 5.0 0.00 0.00 0.00 43 999.0
20260504215004 80 299 2.0 6.0 0.00 0.00 0.00 44 999.1
20260504214504 81 284 2.0 6.0 0.00 0.00 0.00 45 999.2
20260504213504 81 261 2.0 5.0 0.00 0.00 0.00 44 999.2
20260504212506 81 259 2.0 6.0 0.00 0.00 0.00 45 999.3
20260504212005 80 327 1.0 5.0 0.00 0.00 0.00 45 999.4
20260504210005 80 1 2.0 6.0 0.00 0.00 0.00 46 999.4
20260504205005 80 256 1.0 3.0 0.00 0.00 0.00 46 999.4
20260504204005 81 292 2.0 7.0 0.00 0.00 0.00 46 999.5
20260504203505 82 296 2.0 3.0 0.00 0.00 0.00 46 999.5
20260504203005 81 295 1.0 5.0 0.00 0.00 0.00 48 999.5
20260504202505 81 298 1.0 3.0 0.00 0.00 0.00 48 999.5
20260504202005 80 275 1.0 5.0 0.00 0.00 0.00 49 999.6
20260504201505 79 294 1.0 3.0 0.00 0.00 0.00 51 999.6
20260504201005 79 285 2.0 6.0 0.00 0.00 0.00 51 999.5
20260504200505 80 261 2.0 3.0 0.00 0.00 0.00 49 999.5
20260504200005 79 261 1.0 5.0 0.00 0.00 0.00 50 999.5
20260504195005 79 244 1.0 5.0 0.00 0.00 0.00 51 999.6
20260504194505 78 268 2.0 5.0 0.00 0.00 0.00 52 999.6
20260504194005 79 297 2.0 5.0 0.00 0.00 0.00 51 999.6
20260504193005 77 317 1.0 3.0 0.00 0.00 0.00 52 999.6
20260504192505 77 257 1.0 3.0 0.00 0.00 0.00 54 999.6
20260504191506 77 261 1.0 3.0 0.00 0.00 0.00 54 999.5
20260504191005 78 255 3.0 5.0 0.00 0.00 0.00 53 999.5
20260504190506 78 289 1.0 3.0 0.00 0.00 0.00 54 999.6
20260504190005 77 241 1.0 3.0 0.00 0.00 0.00 53 999.6
20260504185505 75 260 1.0 5.0 0.00 0.00 0.00 54 999.6
20260504185005 75 230 1.0 6.0 0.00 0.00 0.00 55 999.7
20260504183505 76 267 2.0 5.0 0.00 0.00 0.00 54 999.7
20260504183006 76 238 2.0 6.0 0.00 0.00 0.00 53 999.7
20260504182505 76 270 2.0 3.0 0.00 0.00 0.00 53 999.7
20260504182005 75 290 2.0 5.0 0.00 0.00 0.00 53 999.8
20260504181505 75 259 1.0 5.0 0.00 0.00 0.00 53 999.8
20260504181005 74 288 1.0 5.0 0.00 0.00 0.00 54 999.7
20260504180505 74 208 1.0 3.0 0.00 0.00 0.00 53 999.8
20260504175505 72 291 1.0 3.0 0.00 0.00 0.00 55 999.8
20260504175005 71 252 1.0 3.0 0.00 0.00 0.00 57 999.8
20260504174505 72 42 1.0 3.0 0.00 0.00 0.00 56 999.8
20260504173505 71 281 0.0 3.0 0.00 0.00 0.00 58 999.7
20260504172004 69 342 1.0 2.0 0.00 0.00 0.00 60 999.7
20260504171005 68 45 0.0 2.0 0.00 0.00 0.00 63 999.8
20260504170505 67 228 1.0 3.0 0.00 0.00 0.00 62 999.8
20260504151004 57 258 0.0 1.0 0.00 0.00 0.00 85 999.6
20260504150504 56 232 0.0 0.0 0.00 0.00 0.00 85 999.5
20260504141004 53 235 0.0 0.0 0.00 0.00 0.00 87 999.0
20260504140504 53 235 0.0 0.0 0.00 0.00 0.00 88 998.9
20260504130504 52 259 0.0 1.0 0.00 0.00 0.00 89 998.5
20260504110505 54 72 0.0 1.0 0.00 0.00 0.00 87 998.6
20260504100505 54 264 0.0 1.0 0.00 0.00 0.00 87 998.7
20260504082005 55 293 0.0 1.0 0.00 0.00 0.00 79 998.6
20260504081505 55 326 0.0 1.0 0.00 0.00 0.00 78 998.6
20260504081005 55 272 0.0 1.0 0.00 0.00 0.00 79 998.6
20260504050504 62 330 0.0 2.0 0.00 0.00 0.00 56 998.5
20260504050004 62 298 0.0 2.0 0.00 0.00 0.00 58 998.6
20260504045504 62 295 0.0 2.0 0.00 0.00 0.00 56 998.6
20260504044504 62 331 1.0 2.0 0.00 0.00 0.00 57 998.5
20260504043504 62 272 0.0 2.0 0.00 0.00 0.00 59 998.5
20260504043004 62 296 0.0 2.0 0.00 0.00 0.00 60 998.5
20260504042004 63 268 0.0 2.0 0.00 0.00 0.00 60 998.4
20260504041504 64 286 0.0 0.0 0.00 0.00 0.00 59 998.5
20260504040503 64 263 0.0 0.0 0.00 0.00 0.00 56 998.4
20260504035504 65 292 0.0 0.0 0.00 0.00 0.00 55 998.3
20260504035004 65 245 0.0 2.0 0.00 0.00 0.00 57 998.2
20260504034503 66 282 0.0 3.0 0.00 0.00 0.00 57 998.2
20260504034004 66 277 0.0 1.0 0.00 0.00 0.00 55 998.2
20260504033504 67 246 1.0 2.0 0.00 0.00 0.00 53 998.2
20260504033004 67 238 0.0 2.0 0.00 0.00 0.00 54 998.2
20260504032006 68 263 0.0 2.0 0.00 0.00 0.00 50 998.1
20260504031506 69 253 0.0 2.0 0.00 0.00 0.00 52 998.1
20260504031006 69 256 0.0 2.0 0.00 0.00 0.00 50 998.1
20260504030505 70 286 1.0 3.0 0.00 0.00 0.00 49 998.1
20260504025506 71 272 0.0 2.0 0.00 0.00 0.00 48 998.2
20260504024506 72 260 1.0 5.0 0.00 0.00 0.00 46 998.2
20260504024005 72 1 0.0 3.0 0.00 0.00 0.00 44 998.2
20260504023506 72 278 1.0 3.0 0.00 0.00 0.00 44 998.2
20260504023006 73 345 1.0 3.0 0.00 0.00 0.00 45 998.3
20260504022505 73 237 1.0 5.0 0.00 0.00 0.00 44 998.2
20260504022005 73 8 1.0 3.0 0.00 0.00 0.00 44 998.3
20260504021505 74 289 2.0 5.0 0.00 0.00 0.00 44 998.3
20260504021005 74 243 1.0 3.0 0.00 0.00 0.00 45 998.4
20260504020005 76 25 1.0 2.0 0.00 0.00 0.00 45 998.4
20260504015505 76 281 1.0 5.0 0.00 0.00 0.00 42 998.4
20260504014005 78 332 1.0 3.0 0.00 0.00 0.00 42 998.5
20260504013006 79 302 1.0 2.0 0.00 0.00 0.00 46 998.5
20260504012505 79 256 2.0 3.0 0.00 0.00 0.00 44 998.6
20260504011505 80 286 1.0 3.0 0.00 0.00 0.00 44 998.7
20260504010505 81 254 2.0 3.0 0.00 0.00 0.00 46 998.7
20260504010005 81 278 1.0 6.0 0.00 0.00 0.00 45 998.8
20260504005505 81 280 1.0 3.0 0.00 0.00 0.00 44 998.9
20260504005006 80 284 2.0 3.0 0.00 0.00 0.00 44 999.0
20260504004505 80 275 1.0 3.0 0.00 0.00 0.00 45 999.0